CORVUS BC3 (43118 NORAD) Tracking and Keplerian Element Data

This shows tracking and keplerian element data for the satellite.

Feedback or suggestion? Click here.




ElementValue
Catalog43118
NameCORVUS BC3
Epoch Orbit35752
Epoch Day160.22606744
Epoch Year2024
RAAN247.2137
Inclination97.2772
Eccentricity0.001277
Argument of Perigee261.3867
Mean Anonmoly98.5969
Mean Motion16.07907187
Decay Rate0.01170838
L11 43118U 18004H 24160.22606744 .01170838 82415-3 14454-2 0 9995
L22 43118 97.2772 247.2137 0012770 261.3867 98.5969 16.07907187357523



Live tracking and technical data element details for CORVUS BC3 (NORAD 43118). CORVUS BC3 can be tracked NOW for your location showing map with azimuth and elevation plus other details from your city location.







IsCatalogInMostPopularTable: catalog: 43118, numindb: 689
Update: records affected: 1



GetName: 43118 CORVUS BC3

Hit Count: updated at: Mon, 23 Jun 2025 12:46:27 GMT